This is the latest recevied weather packets stored in our database for station/object KE8AFF-13. If no packets are shown the sender has not sent any weather packets the latest 10 day(s).
| Time | Temp. | Humidity | Pressure | Rain* | Wind** | Luminosity | Snow |
|---|---|---|---|---|---|---|---|
| 1777557187 | 6.67° C | 91% | 1015.1 hPa | 0 mm | - | 118 W/m² | - |
| 1777556882 | 6.67° C | 92% | 1015 hPa | 0 mm | - | 199 W/m² | - |
| 1777556578 | 6.11° C | 94% | 1014.8 hPa | 0 mm | - | 269 W/m² | - |
| 1777556278 | 6.11° C | 96% | 1015 hPa | 0 mm | - | 122 W/m² | - |
| 1777555974 | 5.56° C | 96% | 1014.9 hPa | 0 mm | - | 108 W/m² | - |
| 1777555669 | 5.56° C | 97% | 1014.6 hPa | 0 mm | - | 98 W/m² | - |
| 1777555366 | 5.56° C | 96% | 1014.8 hPa | 0 mm | - | 34 W/m² | - |
| 1777555063 | 6.11° C | 96% | 1014.6 hPa | 0 mm | - | 29 W/m² | - |
| 1777554760 | 6.11° C | 95% | 1014.8 hPa | 0 mm | - | 35 W/m² | - |
| 1777554457 | 6.11° C | 94% | 1014.7 hPa | 0 mm | - | 27 W/m² | - |
| 1777554153 | 6.11° C | 95% | 1014.6 hPa | 0 mm | - | 31 W/m² | - |
| 1777553851 | 6.11° C | 95% | 1014.5 hPa | 0 mm | - | 50 W/m² | - |
| 1777553547 | 6.11° C | 96% | 1014.4 hPa | 0 mm | - | 63 W/m² | - |
| 1777553242 | 6.11° C | 96% | 1014.6 hPa | 0 mm | - | 40 W/m² | - |
| 1777552938 | 5.56° C | 95% | 1014.2 hPa | 0 mm | - | 53 W/m² | - |
| 1777552634 | 6.11° C | 96% | 1014 hPa | 0 mm | - | 48 W/m² | - |
| 1777552331 | 6.11° C | 96% | 1014 hPa | 0 mm | - | 29 W/m² | - |
| 1777552027 | 6.11° C | 96% | 1014.1 hPa | 0 mm | - | 32 W/m² | - |
| 1777551724 | 6.11° C | 96% | 1013.9 hPa | 0 mm | - | 39 W/m² | - |
| 1777551421 | 6.11° C | 96% | 1014.1 hPa | 0 mm | - | 46 W/m² | - |
| 1777551117 | 6.11° C | 96% | 1013.8 hPa | 0 mm | - | 49 W/m² | - |
| 1777550815 | 5.56° C | 96% | 1013.9 hPa | 0 mm | - | 41 W/m² | - |
| 1777550511 | 5.56° C | 96% | 1013.8 hPa | 0 mm | - | 42 W/m² | - |
| 1777550207 | 6.11° C | 97% | 1013.8 hPa | 0 mm | - | 39 W/m² | - |
| 1777549903 | 5.56° C | 97% | 1013.8 hPa | 0 mm | - | 40 W/m² | - |
* Rain latest hour (hover to see other rain measurements)
** Current wind speed in m/s (hover to see current wind gust speed)